Butler, GA

3:26 AM EDT on August 29, 2016 (GMT -0400)
Butler

Weather History for K6A1 - October, 2012

Change the Weather History Date:

Thursday, October 25, 2012

  Actual Average (KMCN) Record (KMCN)
Temperature  
Mean Temperature 72 °F 62 °F  
Max Temperature 86 °F 75 °F 86 °F (1949)
Min Temperature 59 °F 49 °F 29 °F (1965)
Degree Days  
Heating Degree Days 0 5  
Month to date heating degree days 64  
Since 1 July heating degree days 70  
Cooling Degree Days 8 2  
Month to date cooling degree days 86  
Year to date cooling degree days 2136  
Growing Degree Days 22 (Base 50)    
Moisture  
Dew Point 61 °F    
Average Humidity 73    
Maximum Humidity 100    
Minimum Humidity 40    
Precipitation  
Precipitation 0.00 in 0.09 in 2.14 in (1918)
Month to date precipitation 2.29  
Year to date precipitation 37.82  
Sea Level Pressure  
Sea Level Pressure 30.05 in    
Wind  
Wind Speed 2 mph ()    
Max Wind Speed 12 mph    
Max Gust Speed 17 mph    
Visibility 9.7 miles    
Events      
T = Trace of Precipitation, MM = Missing Value Source: Averaged Metar Reports

Daily Weather History Graph

Daily Weather History Graph

Search for Another Location

Airport or City:

Trip Planner

Search our weather history database for the weather conditions in past years. The results will help you decide how hot, cold, wet, or windy it might be!

Date:

Astronomy

Oct. 25, 2012 Rise Set
Actual Time 7:49 AM EDT 6:52 PM EDT
Civil Twilight 7:23 AM EDT 7:17 PM EDT
Nautical Twilight 6:55 AM EDT 7:46 PM EDT
Astronomical Twilight 6:26 AM EDT 8:15 PM EDT
Moon 4:28 PM EDT (10/25) 3:56 AM EDT (10/25)
Length of Visible Light 11h 53m
Length of Day
11h 03m
Waxing Gibbous, 84% of the Moon is Illuminated
Oct 25
Waxing Gibbous
Oct 29
Full
Nov 6
Last Quarter
Nov 13
New
Nov 20
First Quarter

Hourly Weather History & Observations

Time (EDT) Temp. Heat Index Dew Point Humidity Pressure Visibility Wind Dir Wind Speed Gust Speed Precip Events Conditions
12:15 AM 64.4 °F - 59.0 °F 83% 30.10 in 10.0 mi Calm Calm - N/A   Unknown
12:35 AM 66.2 °F - 59.0 °F 78% 30.09 in 10.0 mi Calm Calm - N/A   Unknown
12:55 AM 66.2 °F - 59.0 °F 78% 30.09 in 10.0 mi Calm Calm - N/A   Unknown
1:15 AM 64.4 °F - 59.0 °F 83% 30.09 in 10.0 mi Calm Calm - N/A   Unknown
1:35 AM 64.4 °F - 59.0 °F 83% 30.09 in 10.0 mi Calm Calm - N/A   Unknown
1:55 AM 64.4 °F - 59.0 °F 83% 30.09 in 10.0 mi Calm Calm - N/A   Unknown
2:15 AM 62.6 °F - 59.0 °F 88% 30.09 in 10.0 mi Calm Calm - N/A   Unknown
2:35 AM 60.8 °F - 59.0 °F 94% 30.08 in 10.0 mi Calm Calm - N/A   Unknown
2:55 AM 62.6 °F - 59.0 °F 88% 30.08 in 10.0 mi Calm Calm - N/A   Unknown
3:15 AM 60.8 °F - 59.0 °F 94% 30.07 in 10.0 mi Calm Calm - N/A   Unknown
3:35 AM 60.8 °F - 59.0 °F 94% 30.07 in 10.0 mi Calm Calm - N/A   Unknown
3:55 AM 59.0 °F - 59.0 °F 100% 30.07 in 10.0 mi Calm Calm - N/A   Unknown
4:15 AM 59.0 °F - 59.0 °F 100% 30.06 in 10.0 mi Calm Calm - N/A   Unknown
4:35 AM 59.0 °F - 57.2 °F 94% 30.05 in 10.0 mi Calm Calm - N/A   Unknown
4:55 AM 59.0 °F - 59.0 °F 100% 30.06 in 10.0 mi Calm Calm - N/A   Unknown
5:15 AM 59.0 °F - 59.0 °F 100% 30.06 in 10.0 mi Calm Calm - N/A   Unknown
5:35 AM 59.0 °F - 59.0 °F 100% 30.06 in 10.0 mi Calm Calm - N/A   Unknown
5:55 AM 60.8 °F - 59.0 °F 94% 30.06 in 10.0 mi Calm Calm - N/A   Unknown
6:15 AM 59.0 °F - 59.0 °F 100% 30.06 in 10.0 mi Calm Calm - N/A   Unknown
6:35 AM 59.0 °F - 59.0 °F 100% 30.06 in 10.0 mi Calm Calm - N/A   Unknown
6:55 AM 59.0 °F - 59.0 °F 100% 30.07 in 10.0 mi Calm Calm - N/A   Unknown
7:15 AM 60.8 °F - 60.8 °F 100% 30.07 in 10.0 mi Calm Calm - N/A   Unknown
8:35 AM 60.8 °F - 60.8 °F 100% 30.09 in 7.0 mi Calm Calm - N/A   Unknown
9:15 AM 62.6 °F - 60.8 °F 94% 30.10 in 10.0 mi NNE 3.5 mph - N/A   Unknown
9:35 AM 62.6 °F - 62.6 °F 100% 30.10 in 10.0 mi NNE 3.5 mph - N/A   Unknown
9:55 AM 64.4 °F - 62.6 °F 94% 30.10 in 10.0 mi NNE 3.5 mph - N/A   Unknown
10:15 AM 69.8 °F - 62.6 °F 78% 30.10 in 10.0 mi ENE 4.6 mph - N/A   Unknown
10:35 AM 69.8 °F - 62.6 °F 78% 30.11 in 10.0 mi East 5.8 mph - N/A   Unknown
10:55 AM 69.8 °F - 64.4 °F 83% 30.10 in 10.0 mi ENE 4.6 mph - N/A   Unknown
11:35 AM 75.2 °F - 64.4 °F 69% 30.10 in 10.0 mi ENE 6.9 mph - N/A   Unknown
11:55 AM 78.8 °F - 64.4 °F 61% 30.09 in 10.0 mi ENE 6.9 mph - N/A   Unknown
12:15 PM 80.6 °F 82.3 °F 64.4 °F 58% 30.08 in 10.0 mi ESE 4.6 mph - N/A   Unknown
12:35 PM 80.6 °F 82.3 °F 64.4 °F 58% 30.07 in 10.0 mi ESE 10.4 mph - N/A   Unknown
12:55 PM 82.4 °F 83.4 °F 62.6 °F 51% 30.06 in 10.0 mi ESE 8.1 mph - N/A   Unknown
1:15 PM 84.2 °F 85.0 °F 62.6 °F 48% 30.05 in 10.0 mi East 8.1 mph 16.1 mph N/A   Unknown
1:35 PM 80.6 °F 81.8 °F 62.6 °F 54% 30.04 in 10.0 mi East 9.2 mph - N/A   Unknown
1:55 PM 82.4 °F 82.9 °F 60.8 °F 48% 30.04 in 10.0 mi ESE 6.9 mph - N/A   Unknown
2:15 PM 84.2 °F 84.4 °F 60.8 °F 45% 30.03 in 10.0 mi East 10.4 mph 17.3 mph N/A   Unknown
2:35 PM 82.4 °F 82.9 °F 60.8 °F 48% 30.02 in 10.0 mi ESE 9.2 mph - N/A   Unknown
2:55 PM 82.4 °F 82.9 °F 60.8 °F 48% 30.02 in 10.0 mi East 8.1 mph - N/A   Unknown
3:15 PM 86.0 °F 85.4 °F 59.0 °F 40% 30.01 in 10.0 mi East 8.1 mph 16.1 mph N/A   Unknown
3:35 PM 86.0 °F 85.4 °F 59.0 °F 40% 30.01 in 10.0 mi ENE 11.5 mph - N/A   Unknown
4:15 PM 84.2 °F 83.8 °F 59.0 °F 42% 30.00 in 10.0 mi NE 10.4 mph - N/A   Unknown
4:35 PM 82.4 °F 82.5 °F 59.0 °F 45% 30.00 in 10.0 mi ENE 4.6 mph - N/A   Unknown
4:55 PM 84.2 °F 83.8 °F 59.0 °F 42% 30.00 in 10.0 mi Calm Calm - N/A   Unknown
5:15 PM 84.2 °F 83.8 °F 59.0 °F 42% 30.00 in 10.0 mi East 4.6 mph - N/A   Unknown
5:35 PM 84.2 °F 83.8 °F 59.0 °F 42% 30.00 in 10.0 mi NE 9.2 mph - N/A   Unknown
5:55 PM 82.4 °F 82.5 °F 59.0 °F 45% 30.01 in 10.0 mi ENE 4.6 mph - N/A   Unknown
6:35 PM 80.6 °F 81.5 °F 60.8 °F 51% 30.01 in 5.0 mi NE 4.6 mph - N/A   Haze
6:55 PM 78.8 °F - 60.8 °F 54% 30.01 in 10.0 mi Calm Calm - N/A   Unknown
7:15 PM 75.2 °F - 60.8 °F 61% 30.02 in 7.0 mi Calm Calm - N/A   Unknown
7:35 PM 73.4 °F - 60.8 °F 65% 30.02 in 10.0 mi Calm Calm - N/A   Unknown
7:55 PM 71.6 °F - 60.8 °F 69% 30.02 in 2.5 mi Calm Calm - N/A   Haze
8:15 PM 73.4 °F - 60.8 °F 65% 30.02 in 10.0 mi Calm Calm - N/A   Unknown
8:35 PM 71.6 °F - 60.8 °F 69% 30.02 in 10.0 mi Calm Calm - N/A   Unknown
8:55 PM 73.4 °F - 60.8 °F 65% 30.02 in 10.0 mi Calm Calm - N/A   Unknown
9:35 PM 73.4 °F - 62.6 °F 69% 30.02 in 10.0 mi ENE 3.5 mph - N/A   Unknown
9:55 PM 73.4 °F - 62.6 °F 69% 30.02 in 10.0 mi Calm Calm - N/A   Unknown
10:15 PM 71.6 °F - 62.6 °F 73% 30.03 in 10.0 mi ESE 3.5 mph - N/A   Unknown
10:35 PM 71.6 °F - 62.6 °F 73% 30.03 in 10.0 mi East 3.5 mph - N/A   Unknown
10:55 PM 71.6 °F - 62.6 °F 73% 30.03 in 10.0 mi Calm Calm - N/A   Unknown
11:15 PM 71.6 °F - 62.6 °F 73% 30.03 in 10.0 mi Calm Calm - N/A   Unknown
11:55 PM 69.8 °F - 62.6 °F 78% 30.02 in 10.0 mi Calm Calm - N/A   Unknown